Location: Unspecified
(35.7250°N, 0.0000°E)
Time: 20:17:30
(UTC+00:00)

Vanguard 1 Rocket - Pass Details

Date: 22 June 2019
Orbit: 651 x 4225 km, 34.3° (Epoch: 15 July)

Event Time Altitude Azimuth Distance (km) Brightness Sun altitude
Rises 17:24:05 0° 246° (WSW) 7,880 13.0 20.8°
Reaches altitude 10° 17:30:08 10° 245° (WSW) 6,422 12.6 19.6°
Maximum altitude 17:48:13 72° 166° (SSE) 2,152 9.4 16.1°
Drops below altitude 10° 17:57:07 10° 84° (E) 3,402 9.8 14.4°
Sets 17:59:20 0° 82° (E) 4,091 10.2 13.9°
